Location: Devore Heights
(34.2372°N, 117.4156°W)
Time: 01:02:21
(UTC+00:00)

Vanguard 2 Rocket - Pass Details

Date: 11 September 2024
Orbit: 553 x 3298 km, 32.9° (Epoch: 09 October)

Event Time Altitude Azimuth Distance (km) Brightness Sun altitude
Exits shadow 10:57:01 49° 242° (WSW) 2,902 8.9 -30.8°
Maximum altitude 11:02:26 79° 166° (SSE) 2,742 9.1 -29.9°
Drops below altitude 10° 11:22:16 10° 84° (E) 6,245 12.0 -26.3°
Sets 11:27:13 0° 83° (E) 7,269 12.7 -25.3°
